Simultaneous Nadir Overpasses (SNOs) Predictions

Prediction of SNOs between GOES-17 and METOP-C Satellite Orbit:

Table of predicted SNOs for the next 14.0 days since TLE Epoch: 4/6/2024
Index Date Time (GOES-17) GOES-17 Lat,Lon METOP-C Lat,Lon Distance(km) Time Diff (sec)
1 04/07/2024 04:33:53 -0.00,-104.67 -0.26,-105.75 122.97 80
2 04/08/2024 04:10:32 -0.01,-104.68 0.85,-100.75 447.35 80
3 04/09/2024 16:29:23 0.01,-104.69 0.14,-105.31 70.69 80
4 04/10/2024 16:11:23 0.01,-104.70 -0.97,-100.31 499.68 80
5 04/12/2024 04:30:21 -0.01,-104.71 -0.02,-104.91 22.42 80
6 04/14/2024 16:28:31 -0.00,-104.72 -0.05,-104.47 29.36 80
7 04/16/2024 04:47:29 0.01,-104.74 -0.94,-109.06 492.22 80
8 04/17/2024 04:24:09 0.01,-104.75 0.19,-104.06 78.21 80
9 04/18/2024 16:42:59 -0.01,-104.76 0.85,-108.62 440.05 80
10 04/19/2024 16:24:59 -0.01,-104.77 -0.27,-103.62 130.81 80
